Weather History for East Milton, MA

Change the Weather History Date:

Thursday, October 20, 2011

  Actual Average (KBOS) Record (KBOS)
Temperature  
Mean Temperature 61 °F 53 °F  
Max Temperature 69 °F 60 °F 79 °F (1969)
Min Temperature 54 °F 45 °F 32 °F (1972)
Degree Days  
Heating Degree Days 4 13  
Month to date heating degree days 193  
Since 1 July heating degree days 290  
Cooling Degree Days 0 0  
Month to date cooling degree days 6  
Year to date cooling degree days 746  
Growing Degree Days 11 (Base 50)    
Moisture  
Dew Point 52 °F    
Average Humidity 83    
Maximum Humidity 100    
Minimum Humidity 56    
Precipitation  
Precipitation 0.67 in 0.13 in 6.11 in (1996)
Month to date precipitation 2.55  
Year to date precipitation 34.61  
Sea Level Pressure  
Sea Level Pressure 29.57 in    
Wind  
Wind Speed 18 mph (SSE)    
Max Wind Speed 28 mph    
Max Gust Speed 44 mph    
T = Trace of Precipitation, MM = Missing Value Source: NWS Daily Summary

Daily Weather History Graph

Daily Weather History Graph

Search for Another Location

Airport:

Trip Planner

Search our weather history database for the weather conditions in past years. The results will help you decide how hot, cold, wet, or windy it might be!

Date:

Astronomy

Oct. 20, 2011 Rise Set
Actual Time 7:02 AM EDT 5:55 PM EDT
Civil Twilight 6:34 AM EDT 6:23 PM EDT
Nautical Twilight 6:01 AM EDT 6:56 PM EDT
Astronomical Twilight 5:29 AM EDT 7:28 PM EDT
Moon No Moon Rise 2:09 PM EDT (10/20)
Length of Visible Light 11h 49m
Length of Day
10h 52m
Last Quarter, 44% of the Moon is Illuminated
Oct 20
Last Quarter
Oct 26
New
Nov 2
First Quarter
Nov 10
Full
Nov 18
Last Quarter

Hourly Weather History & Observations

Time (EDT) Temp. Dew Point Humidity Pressure Visibility Wind Dir Wind Speed Gust Speed Precip Events Conditions
12:54 AM 54.0 °F 54.0 °F 100% 29.60 in - NE 21.9 mph 32.2 mph 0.22 in   Unknown
1:54 AM 54.0 °F 54.0 °F 100% 29.55 in - NE 26.5 mph 39.1 mph 0.19 in   Unknown
2:54 AM 54.0 °F 54.0 °F 100% 29.56 in - NNE 19.6 mph 28.8 mph 0.18 in   Unknown
3:54 AM 54.0 °F 54.0 °F 100% 29.56 in - NNE 13.8 mph 26.5 mph 0.04 in   Unknown
4:54 AM 54.0 °F 54.0 °F 100% 29.59 in - Variable 4.6 mph 23.0 mph 0.02 in   Unknown
5:54 AM 54.0 °F 54.0 °F 100% 29.57 in - NNE 10.4 mph - N/A   Unknown
6:54 AM 55.0 °F 55.0 °F 100% 29.56 in - NE 11.5 mph - 0.01 in   Unknown
7:54 AM 55.0 °F 55.0 °F 100% 29.54 in - NE 13.8 mph 21.9 mph N/A   Unknown
8:54 AM 55.0 °F 55.0 °F 100% 29.52 in - ENE 16.1 mph 21.9 mph N/A   Unknown
9:54 AM 57.0 °F 57.0 °F 100% 29.53 in - East 10.4 mph - N/A   Unknown
10:54 AM 59.0 °F 59.0 °F 100% 29.53 in - SSE 5.8 mph 18.4 mph 0.01 in   Unknown
11:54 AM 64.9 °F 64.0 °F 97% 29.50 in - South 15.0 mph 23.0 mph N/A   Unknown
12:54 PM 68.0 °F 55.9 °F 65% 29.48 in - South 21.9 mph 32.2 mph N/A   Unknown
1:54 PM 66.0 °F 53.1 °F 63% 29.50 in - South 20.7 mph 34.5 mph N/A   Unknown
2:54 PM 64.9 °F 50.0 °F 58% 29.51 in - South 21.9 mph 39.1 mph N/A   Unknown
3:54 PM 63.0 °F 46.9 °F 56% 29.53 in - SSW 26.5 mph 43.7 mph N/A   Unknown
4:54 PM 60.1 °F 48.0 °F 64% 29.55 in - South 27.6 mph 34.5 mph N/A   Unknown
5:54 PM 57.9 °F 46.9 °F 67% 29.57 in - SSW 25.3 mph 39.1 mph N/A   Unknown
6:54 PM 57.0 °F 46.0 °F 67% 29.60 in - SSW 19.6 mph 40.3 mph N/A   Unknown
7:54 PM 55.9 °F 46.0 °F 69% 29.62 in - SSW 20.7 mph 28.8 mph N/A   Unknown
8:54 PM 55.9 °F 46.9 °F 72% 29.64 in - SSW 21.9 mph 33.4 mph N/A   Unknown
9:54 PM 55.0 °F 46.0 °F 72% 29.68 in - SSW 20.7 mph 28.8 mph N/A   Unknown
10:54 PM 55.0 °F 44.1 °F 67% 29.69 in - SSW 21.9 mph 31.1 mph N/A   Unknown
11:54 PM 54.0 °F 43.0 °F 66% 29.70 in - SW 16.1 mph 26.5 mph N/A   Unknown